Skip Page Navigation
NASA JPL Caltech
NASA Logo - Jet Propulsion Laboratory + View the NASA Portal
+ Near-Earth Object (NEO) Program
Search JPL
JPL Home Earth Solar System Stars & Galaxies Technology
JPL Solar System Dynamics
BODIES ORBITS EPHEMERIDES TOOLS PHYSICAL DATA DISCOVERY FAQ SITE MAP
JPL Small-Body Database Browser
Search: [ help ]  
7275 (1983 CY2)
Classification: Main-belt Asteroid          SPK-ID: 2007275
Ephemeris | Orbit Diagram | Orbital Elements | Physical Parameters | Discovery Circumstances | Close-Approach Data ]

[ show orbit diagram ]
Orbital Elements at Epoch 2457000.5 (2014-Dec-09.0) TDB
Reference: JPL 17 (heliocentric ecliptic J2000)
 Element Value Uncertainty (1-sigma)   Units 
e .06691775600665226 4.6824e-08  
a 2.991776702902938 2.5283e-08 AU
q 2.791573719471693 1.3445e-07 AU
i 9.18314938916544 7.6513e-06 deg
node 326.1343130501999 3.5469e-05 deg
peri 111.2943660272828 7.2798e-05 deg
M 128.0229624079199 6.3501e-05 deg
tp 2456328.332418847140
(2013-Feb-04.83241885)
0.00033162 JED
period 1890.132243964229
5.17
2.396e-05
6.56e-08
d
yr
n .1904628637226788 2.4144e-09 deg/d
Q 3.191979686334184 2.6975e-08 AU
  Orbit Determination Parameters
   # obs. used (total)      1078  
   data-arc span      21807 days (59.70 yr)  
   first obs. used      1955-10-24  
   last obs. used      2015-07-08  
   planetary ephem.      DE431  
   SB-pert. ephem.      SB431-BIG16  
   condition code      0  
   fit RMS      .52069  
   data source      ORB  
   producer      Otto Matic  
   solution date      2015-Sep-02 14:21:39  

Additional Information
 Earth MOID = 1.8234 AU 
 T_jup = 3.233 
[ show covariance matrix ]

Ephemeris | Orbit Diagram | Orbital Elements | Physical Parameters | Discovery Circumstances | Close-Approach Data ]

Physical Parameter Table
Parameter Symbol Value Units Sigma Reference Notes
absolute magnitude H 12.1 mag n/a MPO279591  

7275 (1983 CY2)          Discovered 1983-Feb-15 by Thomas, N. G. at Anderson Mesa
Reference: DISCOVERY.DBLast Updated: 2003-08-29

[ show close-approach data ]
Alternate Designations
 1983 CY2 = 1991 UR3 
Ephemeris | Orbit Diagram | Orbital Elements | Physical Parameters | Discovery Circumstances | Close-Approach Data ]
ABOUT SSD CREDITS/AWARDS PRIVACY/COPYRIGHT GLOSSARY LINKS
FirstGov 2015-Sep-03 15:11 UT
(server date/time)  
NASA Home Page
Site Manager:   Ryan S. Park
Webmaster  Alan B. Chamberlin